{"data":{"norad_id":59420,"intl_designator":"2024-064Y","name":"STARLINK-31466","alt_names":[],"object_type":"PAYLOAD","status":"ACTIVE","operator":null,"country":"US","launch_date":"2024-04-05","launch_site_code":"AFETR","launch_vehicle":null,"mission":null,"orbit_class":"UNKNOWN","rcs_meters":null,"size_class":null,"mass_kg":null,"dimensions":null,"purposes":["comms"],"wikipedia_slug":null,"has_3d_model":false,"image_url":null,"decayed_at":null,"tle_current":{"epoch":"2026-09-21T15:58:46.375392Z","epoch_age_seconds":64900,"freshness":"FRESH","line1":"1 59420U 24064Y   26264.66581453  .00000824  00000+0  39468-4 0  9991","line2":"2 59420  43.0035  29.7581 0000992 250.8375 109.2369 15.27577105139192","mean_motion":15.27577105,"eccentricity":9.92e-5,"inclination_deg":43.0035,"raan_deg":29.7581,"arg_perigee_deg":250.8375,"mean_anomaly_deg":109.2369,"bstar":3.9468e-5,"rev_number":13919,"period_min":94.266927364036,"perigee_km":482.37713420415,"apogee_km":483.73839524547,"semimajor_km":6861.1947647248,"source":"CELESTRAK","updated_at":"2026-09-22T09:00:48.919143Z"}}}